Theta_e
295 294 293 292 291 291 289 288 288 287 287 286 286 286 285 284 284 284 284 283 283 283 282 282 282 282 281 281 281 281 280 279 277 279 279 280 279 279 280 281 280 280 280
293 292 291 291 290 289 288 288 288 287 288 287 286 285 285 284 284 283 282 282 282 281 282 281 281 281 280 280 280 279 279 279 278 276 278 278 279 280 280 279 279 279 279
292 291 291 290 289 288 288 288 288 287 287 286 286 285 284 284 283 283 283 282 281 281 281 281 281 280 280 279 279 278 278 278 278 276 276 279 279 279 278 278 278 278 278
291 290 289 289 289 289 289 288 288 287 286 286 285 284 284 283 282 282 281 281 280 280 281 281 280 280 279 279 278 278 278 278 278 277 277 277 278 279 278 275 274 276 274
291 290 290 290 289 289 288 287 287 286 285 285 284 283 282 282 281 281 281 280 280 279 280 280 280 280 280 280 279 279 278 278 278 277 276 276 276 275 274 274 272 272 272
290 289 289 289 288 287 287 286 285 285 284 284 282 281 280 280 283 284 281 280 279 279 278 279 279 279 279 281 282 282 282 278 277 277 276 275 275 274 273 272 271 268 267
290 289 289 288 287 286 286 284 284 283 282 281 281 281 280 280 284 285 285 280 279 279 278 279 278 279 279 278 279 280 280 280 281 279 277 275 273 273 272 270 269 268 267
288 288 288 287 285 284 284 283 282 281 281 280 280 280 280 280 284 285 286 282 281 280 279 279 279 279 278 277 277 276 277 277 277 278 277 275 275 274 272 270 268 266 266
286 285 285 285 284 283 282 281 280 280 279 279 279 279 278 279 283 285 284 282 281 280 280 280 279 278 279 281 278 277 277 277 279 279 276 274 273 272 271 268 265 263 262
284 284 284 283 282 282 281 280 279 279 279 279 279 279 278 279 282 285 285 281 280 279 279 279 279 278 280 281 279 277 276 276 275 272 271 269 268 267 268 266 265 262 261
282 282 282 282 281 281 279 278 278 278 278 277 277 278 278 278 279 284 285 282 280 280 279 278 278 281 282 282 282 279 278 275 273 268 266 266 266 266 266 265 264 263 261
282 281 280 280 280 279 279 276 276 276 276 275 275 275 276 277 278 282 284 285 284 280 279 278 278 281 282 282 280 279 278 271 268 266 265 265 265 264 264 263 263 263 263
280 279 278 278 278 278 278 275 275 275 276 275 275 275 275 276 277 281 283 284 284 283 280 279 281 282 282 281 279 278 271 267 266 264 264 264 264 263 262 261 261 261 260
279 278 277 276 276 276 277 277 277 275 274 275 274 275 275 275 275 275 276 276 278 279 278 280 281 280 278 274 274 273 268 266 265 264 264 263 262 260 260 260 258 258 257
278 276 277 277 277 275 275 276 276 276 277 276 276 276 275 274 275 278 277 274 274 275 270 274 274 272 270 268 266 265 265 264 263 263 261 260 259 259 259 259 257 256 254
276 276 276 276 274 274 274 274 279 281 281 283 282 278 276 279 280 282 282 282 282 280 270 270 270 270 270 269 268 266 263 262 263 261 260 259 258 258 257 256 255 254 254
277 275 274 274 274 274 271 273 275 275 282 284 284 284 284 283 283 284 284 284 284 283 274 271 271 270 270 269 269 267 265 264 262 261 260 258 257 256 254 254 254 254 254
273 273 276 276 274 272 273 273 272 272 274 273 278 283 284 285 285 285 285 285 283 283 280 274 273 273 272 270 269 267 265 261 260 259 257 256 254 253 253 253 253 252 253
273 272 272 271 271 272 271 270 270 268 269 269 268 274 274 281 283 283 284 281 280 281 276 272 274 272 271 269 268 265 263 260 259 257 255 254 252 251 251 251 251 250 251
267 269 269 270 267 268 268 269 267 267 267 268 269 271 268 268 270 271 275 275 275 277 273 274 272 271 269 267 264 262 260 258 257 256 255 254 252 250 251 250 251 251 253
268 266 267 267 268 268 268 268 268 268 269 269 271 270 274 271 271 272 272 272 272 273 272 271 269 267 265 263 261 260 259 259 257 256 255 253 250 249 249 250 250 250 251
268 267 266 268 266 266 267 267 267 267 269 269 269 266 279 274 270 271 271 272 272 271 270 269 267 265 264 262 261 260 259 258 257 256 255 253 250 250 248 249 249 251 252
265 264 262 262 264 264 262 263 265 266 267 267 266 267 266 269 270 272 272 273 270 267 266 265 265 263 262 261 261 261 260 259 259 257 255 254 252 251 249 250 250 251 254
263 263 263 262 260 260 261 264 264 263 265 266 266 267 267 267 269 270 270 268 266 264 262 262 263 262 261 260 259 259 259 258 257 256 255 254 253 251 249 249 250 251 254
259 260 261 261 261 262 260 261 261 262 265 266 266 266 266 267 267 268 268 267 262 261 260 260 260 261 261 259 258 258 257 259 256 254 253 252 252 251 249 250 251 253 255
259 259 259 259 260 260 260 261 261 261 263 264 264 265 265 267 268 268 264 260 260 261 261 260 261 261 260 260 259 259 259 259 257 256 253 252 252 251 251 252 253 256 258
Wind_Speed
20 20 21 18 20 17 17 15 15 11 12 10 10 7 7 5 5 7 6 6 7 6 6 6 5 5 3 3 2 3 4 4 5 3 3 5 7 7 9 9 9 10 9
19 21 19 20 21 17 18 17 13 13 9 11 11 9 7 7 6 6 7 6 6 6 6 6 5 3 3 3 3 5 5 5 4 8 6 5 8 8 9 10 8 9 10
20 22 20 19 20 19 19 15 14 13 10 10 9 9 8 7 7 6 6 7 6 5 6 5 4 4 4 3 5 5 4 4 5 5 6 5 6 7 9 8 8 10 9
15 22 22 20 18 17 17 16 13 12 12 11 9 8 7 7 6 6 7 6 5 5 4 4 5 6 5 6 5 6 6 5 4 5 6 7 7 7 7 8 9 9 11
18 18 20 20 18 16 14 14 13 12 10 10 9 8 7 6 5 6 5 6 5 5 4 5 6 5 8 9 5 6 6 5 3 5 6 7 8 6 8 7 9 10 11
19 19 17 19 18 15 14 13 12 11 10 9 9 9 8 5 10 12 8 5 6 6 6 6 6 6 8 13 13 12 7 4 5 4 7 8 7 7 5 7 9 10 7
19 18 17 17 15 13 12 11 11 10 9 9 8 7 7 5 11 11 11 5 6 6 6 6 6 6 7 7 8 8 7 8 8 6 7 6 4 3 6 9 10 10 10
16 15 14 15 14 12 12 11 9 8 8 7 7 6 5 4 9 11 11 5 6 7 7 8 8 8 8 7 5 6 5 4 5 4 3 2 3 4 6 8 8 10 10
12 13 12 13 13 11 11 10 8 8 5 5 4 5 5 5 11 12 10 6 7 8 7 8 8 7 10 11 6 7 5 4 3 6 4 1 5 7 7 3 5 7 6
12 11 11 10 11 10 9 9 4 5 5 4 5 6 6 5 11 15 12 4 7 6 5 6 12 8 10 11 7 6 7 5 6 4 2 2 4 4 4 2 3 5 6
9 9 9 8 9 9 9 4 6 4 6 5 5 6 6 7 8 14 14 6 6 5 5 4 5 12 12 13 12 6 6 7 5 2 2 2 2 2 1 2 4 4 6
8 8 7 8 6 7 9 5 5 6 5 5 5 4 3 5 9 12 14 15 11 6 6 4 5 11 12 11 5 7 9 7 2 1 2 3 3 3 3 3 5 7 8
7 7 8 6 5 6 8 6 5 6 5 4 4 4 4 3 5 13 13 13 14 9 3 7 11 11 12 7 10 9 7 3 3 2 3 2 2 2 4 4 5 7 11
7 6 6 8 7 6 5 5 5 5 5 4 5 6 5 4 3 3 3 3 7 6 3 4 6 7 8 7 3 5 4 4 3 3 2 2 2 2 3 2 3 5 5
7 6 7 5 6 6 3 6 6 2 6 6 7 6 4 3 5 6 6 4 4 3 2 1 2 3 4 4 3 3 3 3 3 2 3 3 3 3 3 2 4 3 4
7 5 5 6 5 4 3 1 7 10 14 16 9 6 2 7 6 8 9 10 10 9 2 3 4 5 6 6 6 5 4 5 4 4 4 3 3 3 4 4 4 4 6
8 7 5 4 4 5 4 6 6 5 13 12 11 13 15 10 12 12 13 12 12 10 5 5 5 6 7 6 7 7 5 5 4 5 4 3 3 3 3 4 5 5 7
3 6 7 7 6 5 7 6 5 4 3 3 8 12 13 14 14 15 15 12 8 12 8 7 8 8 7 7 7 6 5 4 4 5 4 3 3 2 3 5 5 4 7
6 5 4 4 6 6 5 3 3 3 4 3 2 4 4 10 11 12 13 7 8 9 7 6 6 7 6 6 6 5 5 6 6 5 4 4 3 3 4 5 6 7 7
3 5 6 4 3 3 3 4 3 4 4 4 5 6 2 2 3 4 4 5 6 7 5 7 5 5 6 6 5 5 6 5 6 5 5 4 4 4 5 5 5 6 7
3 3 4 3 4 4 4 6 4 4 5 5 7 4 9 6 6 5 5 5 7 7 6 6 5 5 5 6 6 6 7 6 6 5 4 4 4 4 5 5 5 5 7
4 4 4 4 3 4 5 4 4 4 5 6 4 3 13 5 5 5 5 6 6 6 5 5 6 6 7 8 7 7 6 6 6 6 5 5 4 4 4 5 5 5 7
4 4 3 3 3 2 2 2 3 4 5 5 4 4 4 4 5 6 7 6 4 5 4 5 5 4 4 5 6 7 7 7 6 6 6 5 4 5 4 4 4 5 7
4 3 2 1 1 1 3 4 4 5 5 4 4 4 4 5 6 7 5 4 4 4 3 4 4 6 6 5 5 5 4 4 4 5 7 5 5 5 4 4 5 8 9
4 4 4 4 4 3 2 3 3 3 4 4 4 3 3 3 3 4 4 4 3 3 4 3 2 5 7 9 7 8 7 9 7 6 5 5 6 6 5 4 6 8 10
3 1 1 1 0 0 1 1 2 2 3 3 3 3 4 4 4 4 3 3 3 3 3 4 5 7 8 7 8 8 9 10 9 11 6 6 6 5 5 7 9 8 10
Wind_Direction
138 134 130 131 124 130 123 126 131 139 140 135 120 129 116 124 116 112 129 142 148 160 155 147 141 158 161 150 162 182 205 207 242 274 255 288 293 307 318 318 318 318 322
132 122 128 129 123 131 128 132 140 131 137 126 131 144 144 143 145 148 155 164 176 170 159 157 158 171 175 186 203 221 222 212 229 268 292 299 305 314 309 304 314 311 311
126 125 126 126 129 133 130 136 140 134 140 138 140 139 160 166 166 166 156 182 180 178 174 172 172 188 212 219 222 236 232 231 222 249 283 300 303 315 310 306 308 309 303
130 128 127 130 134 134 138 142 143 147 147 146 150 154 162 168 165 170 176 177 176 185 185 183 203 210 222 228 231 238 232 236 244 266 283 296 300 313 297 309 314 313 305
126 128 129 130 130 137 142 140 149 151 145 148 148 156 164 164 174 177 175 181 182 192 207 213 221 221 228 229 231 234 233 245 267 278 290 299 306 313 314 322 308 314 302
129 125 129 130 134 146 144 149 140 145 152 147 161 166 168 176 185 189 183 182 196 207 215 221 227 224 239 247 249 256 241 223 257 280 302 288 295 309 311 311 312 320 315
127 132 138 133 137 141 137 138 138 144 148 160 164 164 176 174 190 196 200 197 203 214 210 217 225 223 226 233 249 267 275 283 283 284 281 288 300 308 312 308 312 303 292
128 131 133 132 132 136 140 139 141 143 156 162 168 168 168 184 202 210 215 202 212 219 213 218 222 222 219 222 239 257 257 264 271 265 241 192 266 305 301 301 308 298 294
123 124 130 133 133 137 138 141 138 139 154 168 166 160 178 201 210 218 217 211 224 228 221 219 222 229 229 232 220 238 252 247 229 134 138 355 343 341 326 321 315 326 312
127 129 125 125 133 141 140 141 129 143 159 142 157 189 198 207 216 222 221 208 230 236 221 226 224 227 233 232 228 222 241 238 177 195 220 332 358 335 353 14 318 315 312
108 115 119 131 137 136 133 130 144 134 133 157 184 197 204 209 220 223 226 213 231 239 227 217 217 239 242 234 234 207 235 153 169 165 278 287 292 266 315 338 330 303 291
126 127 124 115 137 142 138 110 141 139 148 183 197 227 233 222 227 238 236 235 234 233 243 212 219 237 233 232 230 188 159 141 141 214 262 280 292 306 322 321 303 285 273
108 116 133 147 128 123 137 157 152 167 172 194 200 218 229 224 229 239 240 245 250 258 233 225 230 229 228 225 173 181 135 165 185 233 255 261 260 291 301 303 283 283 286
134 156 145 143 150 168 163 166 153 168 185 192 201 228 226 225 232 221 224 246 266 265 297 269 218 196 154 146 131 163 184 185 202 230 242 246 267 277 283 291 286 306 295
153 155 164 154 165 168 150 180 192 177 183 199 211 210 184 224 234 218 205 207 218 221 127 106 127 135 160 181 197 188 205 196 216 218 225 237 252 273 294 321 294 300 274
159 166 163 166 175 150 158 208 243 221 220 228 218 194 210 223 186 202 207 212 208 176 115 184 196 200 204 206 213 212 217 217 220 216 227 232 254 282 300 304 279 268 287
177 169 151 133 162 164 173 198 212 241 244 243 242 241 237 226 224 231 231 233 230 210 195 202 211 204 214 210 208 204 215 205 183 212 228 226 238 263 267 282 287 287 299
151 156 175 181 175 175 193 200 195 190 215 255 244 238 238 240 239 235 234 242 238 228 218 205 212 210 208 205 202 202 207 178 205 218 220 214 216 234 268 273 281 287 301
184 181 164 170 190 189 183 179 184 195 218 227 279 248 250 241 242 241 236 231 233 239 216 217 210 203 205 200 195 188 191 197 200 202 212 208 202 202 252 262 279 278 284
135 158 178 172 162 168 165 181 194 212 222 230 232 236 188 142 209 214 221 226 236 244 208 216 208 203 191 190 184 181 188 193 198 207 215 209 206 212 248 263 263 293 296
166 169 162 154 177 180 174 200 201 199 223 226 239 214 212 209 220 218 222 222 230 234 223 211 198 195 189 182 174 181 193 198 205 208 204 207 196 224 230 251 275 275 274
169 171 177 193 167 188 210 204 203 216 229 236 250 233 240 222 216 230 228 234 235 232 218 205 199 191 184 181 179 181 191 201 201 202 206 206 209 225 237 253 272 278 278
160 160 172 200 201 198 221 220 227 231 244 242 240 236 226 236 237 242 243 240 223 223 212 205 196 180 170 172 176 182 185 196 200 188 198 202 207 225 226 255 270 284 282
157 166 168 158 134 231 232 240 236 237 243 250 244 242 234 232 240 247 253 248 242 238 202 199 196 177 167 176 182 189 197 178 176 189 191 198 218 226 239 252 261 261 273
140 160 176 192 203 220 245 258 263 264 263 260 269 259 261 264 268 261 263 266 262 208 201 187 171 175 176 181 189 194 197 203 197 193 191 203 227 231 236 249 262 275 274
98 98 152 120 281 248 235 274 273 270 275 282 283 289 285 280 277 288 280 248 233 218 183 173 189 187 183 189 196 198 204 208 210 209 197 204 223 236 233 249 262 266 279